sat.trackr.live / text

‹ back to catalog

STARLINK-5331

NORAD 55280 · 2023-010M

PAYLOAD ACTIVE UNKNOWN

§ Identity

Operator
Country
US
Launch date
2023-01-19
Launch site
AFWTR
Launch vehicle
Mass (kg)
RCS (m²)

Purposes: comms

External: N2YO · Heavens-Above · Gunter

§ Orbital elements

Epoch: 2026-05-25T03:22:46.535232Z

Period
96.11 min
Inclination
69.9991°
Eccentricity
0.0003577
Mean motion
14.98339082 rev/d
Perigee alt
569.5 km
Apogee alt
574.5 km
Semi-major
6,950.2 km
B*
7.3552e-5
RAAN
211.8404°
Arg perigee
272.0058°
Mean anomaly
88.0691°
Rev number
18,422

§ Raw data

STARLINK-53311 55280U 23010M   26145.14081638  .00000785  00000+0  73552-4 0  99902 55280  69.9991 211.8404 0003577 272.0058  88.0691 14.98339082184227

JSON: /api/v1/satellites/55280 · /tle

For live sub-satellite position, see the globe view (requires WebGL).

§ Visibility from observer

Set your observer location to see the next 7 days of passes ≥ 10°. The values pass through the URL so the page stays shareable.

No JS? Fill the form by hand. The geolocation button needs JavaScript.